Wind_Speed
19 19 20 20 21 21 20 20 20 19 18 18 18 19 21 24 27 24 8 14 14 18 19 16 6 5 3 3 4 4 2 5 6 7 5 2 4 4 4 5 2 2 7 5 9
19 19 19 20 22 23 22 22 21 21 21 20 19 20 22 24 25 15 12 8 11 15 15 9 7 7 3 5 4 5 5 10 6 7 4 3 2 8 6 7 3 3 5 8 6
20 21 22 22 22 22 23 24 24 23 22 21 20 20 21 21 6 5 9 12 18 17 12 13 9 7 7 5 7 7 10 8 6 6 3 5 8 3 10 6 6 10 7 5 4
22 22 23 24 24 24 24 23 22 23 23 21 20 18 18 9 5 5 8 20 19 11 4 5 6 4 8 12 6 6 12 13 6 5 3 6 5 8 11 10 10 14 11 6 11
24 24 25 26 26 27 26 25 24 23 21 19 16 12 7 4 10 19 17 21 17 14 3 5 9 7 6 5 4 13 6 8 10 6 6 6 16 14 21 11 12 14 15 12 11
26 26 27 28 30 29 26 23 23 26 22 16 10 3 1 5 7 20 27 29 26 16 9 4 5 5 6 6 16 2 5 11 6 7 4 8 17 7 11 8 14 15 17 15 12
25 26 27 28 29 27 25 21 23 25 20 10 2 2 6 15 17 25 25 22 26 18 5 10 8 6 2 4 7 3 5 3 6 4 8 7 22 31 16 12 17 20 20 17 16
24 26 26 28 28 25 23 21 20 21 14 10 5 4 7 18 16 20 13 15 18 21 20 22 15 4 7 5 4 5 5 12 14 11 6 9 31 16 9 16 22 22 14 13 13
24 26 26 28 27 26 24 22 19 20 8 9 4 3 11 16 9 19 14 9 22 16 9 13 6 7 4 5 4 4 14 6 4 9 7 18 33 2 5 8 11 10 13 13 17
26 26 26 28 25 24 21 22 20 8 7 4 1 1 8 10 17 18 16 14 2 6 3 5 5 4 3 7 16 6 3 2 4 7 15 15 28 11 13 16 16 13 14 13 13
25 25 24 24 21 19 18 10 8 5 5 5 11 7 20 15 26 8 16 3 3 1 3 4 4 13 14 9 3 4 3 3 3 1 4 14 19 14 9 11 14 18 19 21 20
24 25 26 22 20 8 10 3 4 5 9 11 14 10 22 13 6 6 4 3 5 4 4 5 14 5 1 7 9 7 0 3 5 8 4 4 11 14 13 16 17 18 16 14 9
26 26 25 19 11 2 9 2 6 12 2 8 6 5 9 2 5 6 4 5 1 2 5 6 7 6 5 3 4 4 4 3 6 7 13 10 18 14 15 14 16 16 16 16 16
28 25 22 17 1 9 4 4 18 1 3 5 5 3 8 7 4 2 4 4 1 6 4 5 7 4 4 6 9 7 4 2 2 1 5 3 13 19 18 20 17 15 16 17 11
30 26 19 9 8 4 6 14 12 4 4 12 5 4 17 4 11 1 8 0 7 13 3 7 2 4 5 6 6 7 9 9 8 7 4 5 5 17 5 8 11 16 19 16 16
33 26 15 3 5 9 12 17 3 5 4 7 7 15 12 6 10 4 4 3 5 6 6 11 3 3 5 5 9 5 5 4 2 3 4 8 9 24 7 13 15 9 11 12 11
32 14 6 5 3 12 17 3 4 4 4 7 9 16 14 6 8 5 11 5 2 3 4 4 14 10 6 5 4 5 5 2 1 2 8 10 11 23 7 9 6 8 9 9 8
22 6 1 5 9 14 6 5 5 2 5 6 10 15 4 8 6 6 9 3 4 3 2 3 2 5 3 8 7 6 7 4 6 5 5 6 11 7 12 13 8 7 10 9 10
16 5 2 5 6 9 5 5 5 4 4 7 12 3 4 6 3 6 3 3 3 4 3 3 4 4 2 2 5 3 4 7 3 3 1 5 6 7 15 13 11 9 9 12 11
10 7 5 5 5 6 5 2 3 4 5 6 3 4 5 10 6 5 4 3 3 1 3 4 4 2 3 3 9 4 3 2 1 4 5 5 5 6 9 4 8 10 10 12 3
5 3 8 3 5 5 3 4 5 5 5 3 6 8 9 7 4 4 6 7 2 2 0 1 1 5 4 4 6 3 3 2 3 5 3 3 5 6 8 4 6 14 19 11 8
6 2 10 3 4 1 1 4 5 7 2 5 4 5 5 3 5 4 6 3 2 1 5 2 1 3 7 6 4 3 3 5 4 6 4 4 6 7 3 8 12 15 10 5 9
3 3 4 3 2 3 5 5 4 4 7 3 4 4 1 3 5 5 5 6 1 4 4 1 1 3 4 2 3 0 4 4 2 2 6 4 7 4 8 16 16 14 7 2 7
3 4 4 4 1 3 5 5 4 5 6 3 5 4 3 7 8 6 6 6 1 5 8 2 2 5 4 2 1 3 7 8 3 5 5 11 12 23 16 14 20 20 5 5 7
3 1 1 4 3 5 4 5 9 6 3 1 4 4 8 7 13 14 11 7 8 6 0 4 6 5 8 8 9 10 14 13 15 10 7 3 8 16 10 15 15 10 1 6 10
2 3 3 4 5 4 4 4 7 6 5 11 7 15 14 13 14 21 18 14 11 4 5 6 4 2 8 10 11 13 15 17 18 18 15 12 21 13 11 8 10 7 4 6 10
3 2 2 4 4 2 4 4 9 15 8 9 14 17 15 16 12 19 20 22 15 7 7 5 4 3 4 4 5 9 15 18 16 13 12 13 12 11 8 13 8 6 7 7 8
Wind_Direction
358 355 351 348 345 343 342 339 338 336 333 330 330 330 327 326 324 319 264 259 278 295 303 297 262 190 182 221 181 130 126 215 213 183 248 315 321 204 199 199 115 197 164 225 358
356 354 349 346 345 342 339 337 333 331 329 327 329 329 329 332 322 285 308 314 307 310 287 266 237 184 192 198 203 171 181 215 204 202 242 262 311 326 329 345 196 288 264 243 269
354 351 349 346 343 339 335 331 328 326 323 322 326 329 332 337 313 219 128 5 337 334 279 248 311 207 202 178 195 198 221 211 226 214 255 267 305 268 305 318 286 292 306 314 2
353 349 345 342 339 335 330 325 320 317 317 319 325 331 338 354 327 147 234 302 345 353 281 211 228 233 185 207 195 214 223 217 224 179 223 259 303 288 279 266 292 287 284 289 280
351 347 344 341 338 334 330 325 324 324 317 314 316 329 5 357 255 310 319 323 343 0 279 200 214 214 198 204 204 235 215 210 227 225 242 276 257 255 264 265 261 269 276 270 263
348 346 344 342 340 337 335 335 340 336 322 312 312 321 38 279 284 319 315 315 311 316 316 227 238 220 273 209 204 81 213 238 238 241 228 251 269 252 247 245 265 268 267 262 253
344 343 344 343 340 341 340 342 345 347 342 327 272 167 229 243 290 314 314 302 304 283 254 241 255 240 206 288 247 265 279 265 221 203 235 198 267 250 250 249 253 254 260 266 253
341 343 343 342 341 342 344 341 343 349 354 1 132 163 250 291 311 303 335 317 343 327 240 249 248 267 183 283 317 190 174 237 232 186 221 158 258 261 208 223 246 256 254 251 259
339 341 344 343 342 342 345 344 344 338 333 15 106 130 273 309 287 309 296 294 320 331 261 252 173 205 148 200 349 251 235 214 249 206 182 190 249 203 264 255 256 268 272 264 270
339 342 346 343 343 342 349 345 335 357 351 347 200 270 277 310 298 295 295 270 223 309 303 204 226 184 169 169 215 202 170 159 190 200 198 219 248 259 271 270 271 266 267 267 266
338 340 342 341 343 343 356 1 9 349 2 262 271 258 278 279 301 288 297 209 75 358 280 238 196 215 214 234 254 44 97 63 343 232 353 235 254 260 264 271 267 266 264 267 270
342 336 334 339 340 338 3 47 120 296 299 296 251 248 262 265 294 305 23 202 121 264 319 326 236 246 114 195 241 271 235 237 276 267 231 275 275 277 255 260 258 262 266 261 258
346 338 334 337 342 12 343 304 330 338 238 294 245 262 269 256 275 289 4 354 106 216 242 208 266 221 175 211 197 189 201 187 222 291 285 300 286 270 264 245 253 253 253 253 247
344 335 334 337 57 332 290 330 328 236 41 288 325 308 351 293 312 203 175 171 90 260 234 207 264 192 190 223 224 238 180 270 329 171 257 37 289 273 272 264 255 251 247 250 230
340 330 326 326 295 292 308 321 328 142 348 319 328 323 325 315 300 253 339 234 214 226 307 247 225 247 222 206 177 236 177 207 221 257 283 254 311 278 202 261 263 252 257 250 243
338 327 314 285 262 295 312 328 120 48 281 329 329 327 343 303 323 299 274 56 297 243 222 249 266 201 230 261 207 202 183 157 82 137 250 219 197 276 226 243 243 259 250 251 258
345 332 248 207 269 316 329 53 42 100 325 324 320 325 320 298 320 334 331 333 46 314 32 256 238 239 242 280 244 184 115 122 107 197 230 187 188 236 261 302 238 266 270 258 254
351 1 303 261 303 318 354 53 75 251 266 293 307 312 296 4 309 313 320 347 292 288 140 276 282 175 221 188 195 191 167 168 174 192 213 209 229 249 240 246 286 276 263 273 267
355 1 29 351 341 341 61 51 194 218 248 302 315 291 288 317 282 333 295 279 326 4 302 204 269 321 3 198 154 178 177 210 356 289 89 215 280 298 278 273 294 302 285 266 252
352 340 14 342 353 13 66 275 231 218 294 296 265 239 293 316 328 353 291 243 326 223 144 312 305 199 148 224 232 175 198 132 308 208 234 253 253 233 305 350 330 317 299 276 192
12 39 3 358 332 44 114 249 279 254 298 277 257 274 285 299 277 283 273 306 52 315 204 326 75 304 338 211 193 170 261 230 187 182 209 301 275 229 242 65 324 342 332 289 161
355 40 9 354 43 70 19 294 282 275 310 280 251 257 250 312 276 263 241 230 163 353 315 19 150 264 246 264 5 351 269 201 192 251 258 112 290 292 3 33 358 338 332 359 155
1 290 2 11 75 323 304 284 268 297 306 325 285 251 264 256 283 258 290 304 247 180 220 186 276 312 304 10 40 309 290 234 206 126 222 235 251 234 347 359 342 337 326 112 154
7 358 329 38 49 105 319 290 281 258 278 327 265 263 344 285 241 278 276 296 286 218 250 178 214 219 229 275 114 293 293 296 241 230 245 243 294 277 307 345 330 334 299 185 154
26 323 202 304 317 315 255 267 287 315 237 269 281 260 305 294 298 266 258 266 261 270 342 176 224 231 254 279 284 263 267 268 268 257 251 309 261 286 322 313 299 319 277 173 157
45 27 354 287 281 265 261 255 295 310 306 307 260 301 298 289 279 290 281 266 267 246 180 189 234 206 289 273 253 264 260 257 253 255 256 255 273 277 278 274 288 315 224 178 173
359 353 129 271 293 334 250 259 294 316 289 258 295 298 295 290 286 276 268 264 249 219 205 192 192 150 252 245 322 277 251 255 247 228 219 227 256 278 293 294 285 298 221 197 175
Height
822 820 817 815 812 809 806 803 800 798 797 796 794 790 788 783 778 770 765 760 761 759 758 761 761 760 761 762 761 764 786 790 777 773 756 742 748 731 721 727 724 722 726 723 723
822 820 818 814 810 806 803 800 797 795 793 792 789 786 783 778 770 761 757 757 758 757 757 758 757 758 764 762 761 768 783 774 755 752 749 741 745 740 735 733 726 724 717 717 721
822 819 816 813 810 807 803 798 795 792 790 788 786 785 782 777 771 758 757 755 754 755 754 756 756 754 762 759 758 760 759 753 746 744 743 743 740 737 736 735 726 726 721 721 721
822 819 816 812 808 804 801 798 795 791 788 786 785 783 782 777 775 756 756 754 753 752 751 752 755 756 760 758 749 758 746 742 740 741 742 743 737 740 732 730 725 722 721 723 723
821 818 814 810 806 802 798 793 791 788 787 784 783 783 782 785 771 756 754 753 753 752 752 751 755 752 757 753 749 748 743 740 739 740 741 740 739 740 725 726 724 723 719 720 720
819 815 811 807 802 798 793 789 787 785 782 780 781 784 787 785 756 754 751 750 750 753 751 750 750 748 749 747 745 738 740 742 741 740 741 743 735 735 721 722 719 717 715 713 713
819 814 810 806 801 796 792 788 785 782 778 776 778 780 779 768 754 752 751 749 748 749 750 747 747 752 743 745 738 737 747 745 743 741 742 739 736 718 718 719 717 713 710 708 705
818 814 810 805 800 796 792 788 785 781 778 776 776 778 772 754 752 750 748 745 744 743 743 741 744 746 744 739 737 742 746 752 730 740 735 737 720 708 707 713 710 703 705 705 699
817 812 808 803 798 794 790 786 782 779 777 775 777 779 770 752 748 744 744 743 741 740 739 739 741 742 740 747 755 747 741 749 739 725 732 732 701 706 703 707 709 706 701 698 693
814 809 804 800 796 792 789 785 780 778 777 775 776 780 759 752 745 741 740 739 739 739 738 742 741 742 746 748 744 745 748 734 737 728 727 729 711 714 707 707 705 703 697 694 691
813 807 803 798 795 792 790 786 786 784 780 779 773 773 763 751 747 742 736 736 734 741 745 739 747 736 730 734 733 735 737 741 733 724 730 726 719 715 712 708 704 697 693 688 684
811 806 801 797 794 792 792 793 796 800 792 771 767 766 756 753 750 741 735 738 735 747 744 747 737 733 727 731 735 737 741 744 736 727 730 729 726 718 714 707 700 695 689 688 685
808 804 798 794 792 792 792 793 792 791 796 774 763 760 753 750 747 743 737 739 737 742 743 747 737 728 727 731 734 737 740 739 741 729 721 728 716 709 695 692 687 683 681 677 676
806 801 797 792 793 791 790 790 789 787 801 776 762 756 752 748 746 738 735 737 736 741 735 738 730 728 730 732 734 743 731 731 733 737 747 727 728 704 692 684 680 677 674 666 669
802 798 795 792 791 790 788 786 784 786 799 772 764 757 756 755 746 737 734 734 737 738 734 733 725 727 730 729 726 731 727 733 736 740 741 735 751 681 682 685 679 668 661 658 656
798 793 790 790 789 786 784 783 783 799 805 778 768 767 764 755 745 737 735 734 731 730 729 728 719 722 724 719 720 719 727 733 737 745 754 731 744 686 687 672 663 661 659 653 651
793 788 787 788 787 784 782 781 802 813 788 780 776 769 768 762 748 743 740 736 747 744 740 726 724 717 716 724 720 722 735 755 763 760 737 720 733 680 672 663 663 658 652 650 647
790 788 787 787 786 784 781 792 806 796 791 779 774 771 766 761 754 747 744 745 740 736 739 741 730 714 708 717 723 725 730 747 736 738 730 713 716 688 663 656 653 651 650 645 644
789 788 787 787 786 784 790 814 813 798 785 781 774 776 771 762 762 757 750 743 736 739 744 734 734 713 711 710 711 719 727 718 729 723 728 715 692 674 654 654 649 651 648 644 637
791 789 789 788 786 785 800 798 796 785 779 778 784 776 776 766 766 767 752 737 737 737 741 736 733 716 710 708 710 712 711 725 740 729 726 706 697 689 667 662 659 655 648 638 635
792 794 790 788 788 796 815 805 791 780 778 777 775 772 769 766 764 764 752 738 736 736 738 739 742 725 717 714 715 712 719 717 724 727 717 711 697 668 657 657 663 652 640 635 636
800 800 791 789 802 815 814 797 788 780 775 773 772 769 767 765 767 761 752 738 734 737 741 740 747 746 728 715 715 716 713 716 725 715 713 718 705 653 656 662 660 651 646 640 636
808 806 793 791 819 822 806 796 789 782 779 776 776 767 765 768 772 757 750 737 738 740 741 739 748 746 724 722 717 718 715 715 718 722 717 711 694 657 654 660 655 653 647 643 643
810 812 804 802 809 808 805 791 791 778 776 776 774 767 768 765 760 760 751 740 737 738 733 740 753 748 746 723 727 729 721 718 717 722 705 698 693 663 665 671 658 649 649 645 645
815 818 815 818 812 811 806 794 786 779 775 776 774 766 769 761 757 752 748 744 735 731 737 743 742 747 738 731 726 725 721 716 716 711 714 699 695 675 680 674 663 655 651 649 648
821 821 818 817 810 805 796 791 784 777 781 772 772 764 764 760 756 748 746 743 738 736 740 743 735 735 729 720 721 719 710 706 705 704 700 701 692 681 672 669 662 655 654 652 650
819 819 819 813 811 809 802 788 783 780 775 771 768 765 757 747 741 735 731 726 729 730 732 733 737 736 734 715 717 717 696 692 687 688 692 696 682 676 672 663 660 653 651 650 650